Location: Izdebno
(52.6670°N, 16.2170°E)
Time: 22:10:46
(UTC+02:00)

Vanguard 2 Rocket - Pass Details

Date: 23 February 2024
Orbit: 555 x 3307 km, 32.9° (Epoch: 21 April)

Event Time Altitude Azimuth Distance (km) Brightness Sun altitude
Rises 18:50:49 0° 261° (W) 5,808 12.7 -14.2°
Reaches altitude 10° 18:54:49 10° 251° (WSW) 5,156 11.9 -14.8°
Maximum altitude 19:07:58 32° 197° (SSW) 4,418 10.4 -16.8°
Drops below altitude 10° 19:23:58 10° 145° (SE) 6,244 10.7 -19.2°
Enters shadow 19:27:26 - 140° (SE) 6,809 10.9 -19.7°
Sets 19:29:33 0° 137° (SE) 7,161 - -20.0°
